Simultaneous Nadir Overpasses (SNOs) Predictions

Prediction of SNOs between AQUA and METOP-A Satellite Orbit:

Table of predicted SNOs for the next 14.0 days since TLE Epoch: 5/11/2012
Index Date (AQUA) Time (AQUA) AQUA Lat,Lon Date (METOP-A) Time (METOP-A) METOP-A Lat,Lon Distance(km) Time Diff (sec)
1 05/12/2012 20:21:46 -73.77, 49.03 05/12/2012 20:20:33 -73.72, 48.86 7.38 73
2 05/12/2012 21:11:15 73.85,-143.52 05/12/2012 21:11:10 73.87,-143.45 3.00 5
3 05/12/2012 22:00:42 -73.92, 23.97 05/12/2012 22:01:51 -73.90, 23.95 2.36 69
4 05/15/2012 15:56:01 -73.77, 115.46 05/15/2012 15:54:55 -73.78, 115.41 1.98 66
5 05/15/2012 16:45:30 73.86, -77.11 05/15/2012 16:45:33 73.88, -77.03 2.84 3
6 05/15/2012 17:34:59 -74.03, 90.17 05/15/2012 17:36:11 -74.06, 90.74 17.74 72
7 05/18/2012 11:30:16 -73.80,-178.17 05/18/2012 11:29:17 -73.79,-178.17 1.17 59
8 05/18/2012 12:19:44 73.84, -10.63 05/18/2012 12:19:56 73.83, -10.74 3.84 12
9 05/18/2012 13:09:19 -74.31, 155.95 05/18/2012 13:10:28 -74.31, 157.78 55.04 69
10 05/21/2012 07:04:32 -73.80,-111.74 05/21/2012 07:03:40 -73.79,-111.76 1.18 52
11 05/21/2012 07:54:00 73.85, 55.79 05/21/2012 07:54:18 73.87, 55.77 2.97 18
12 05/21/2012 08:43:40 -74.57,-138.24 05/21/2012 08:44:45 -74.60,-135.05 94.37 65
13 05/24/2012 02:38:48 -73.77, -45.26 05/24/2012 02:38:03 -73.79, -45.36 3.59 45
14 05/24/2012 03:28:17 73.88, 122.15 05/24/2012 03:28:41 73.87, 122.16 1.22 24




NCC Satellite Simultaneous Nadir Overpasses (SNOs) Prediction Service
